| time (UTC) | temp C | wind direction | speed KPH | gust KPH | rain 1hr cm | rain 24hr cm | rain mn cm | humidity % | barometer mb |
| 20260509010208 | 10 | 355 | 1.6 | 4.8 | 0.00 | 0.25 | 0.00 | 85 | 1018.2 |
| 20260509010033 | 10 | 355 | 0.0 | 3.2 | 0.00 | 0.25 | 0.00 | 85 | 1018.7 |
| 20260509005640 | 10 | 355 | 1.6 | 4.8 | 0.00 | 0.25 | 0.00 | 85 | 1018.2 |
| 20260509005127 | 10 | 355 | 1.6 | 4.8 | 0.00 | 0.25 | 0.00 | 84 | 1018.2 |
| 20260509004615 | 10 | 355 | 1.6 | 4.8 | 0.00 | 0.25 | 0.00 | 85 | 1018.2 |
| 20260509004606 | 10 | 355 | 1.6 | 4.8 | 0.00 | 0.36 | 0.00 | 85 | 1018.7 |
| 20260509003544 | 10 | 355 | 1.6 | 3.2 | 0.00 | 0.25 | 0.00 | 85 | 1018.3 |
| 20260509003030 | 10 | 355 | 1.6 | 4.8 | 0.00 | 0.25 | 0.00 | 85 | 1018.3 |
| 20260509003004 | 10 | 355 | 0.0 | 4.8 | 0.00 | 0.36 | 0.00 | 85 | 1018.8 |
| 20260509002514 | 10 | 355 | 1.6 | 4.8 | 0.00 | 0.25 | 0.00 | 85 | 1018.5 |
| 20260509001525 | 10 | 355 | 0.0 | 1.6 | 0.00 | 0.36 | 0.00 | 85 | 1018.9 |
| 20260509001444 | 10 | 355 | 0.0 | 1.6 | 0.00 | 0.28 | 0.00 | 85 | 1018.6 |
| 20260509000410 | 10 | 355 | 0.0 | 1.6 | 0.00 | 0.33 | 0.00 | 85 | 1018.6 |
| 20260509000138 | 10 | 355 | 0.0 | 3.2 | 0.00 | 0.36 | 0.00 | 85 | 1019.0 |
| 20260508235857 | 10 | 355 | 0.0 | 3.2 | 0.00 | 0.38 | 0.00 | 85 | 1018.7 |
| 20260508235333 | 10 | 355 | 0.0 | 4.8 | 0.00 | 0.48 | 0.00 | 85 | 1018.7 |
| 20260508234818 | 10 | 355 | 0.0 | 4.8 | 0.00 | 0.53 | 0.00 | 85 | 1018.7 |
| 20260508234546 | 10 | 355 | 0.0 | 4.8 | 0.00 | 0.61 | 0.00 | 85 | 1019.0 |
| 20260508234304 | 10 | 355 | 0.0 | 4.8 | 0.00 | 0.58 | 0.00 | 85 | 1018.7 |
| 20260508233236 | 10 | 355 | 1.6 | 6.4 | 0.00 | 0.61 | 0.00 | 85 | 1018.7 |
| 20260508233007 | 10 | 355 | 1.6 | 6.4 | 0.00 | 0.61 | 0.00 | 85 | 1019.0 |
| 20260508232723 | 10 | 355 | 1.6 | 6.4 | 0.00 | 0.61 | 0.00 | 85 | 1018.7 |
| 20260508232206 | 10 | 349 | 1.6 | 4.8 | 0.00 | 0.61 | 0.00 | 85 | 1018.7 |
| 20260508231657 | 10 | 344 | 1.6 | 6.4 | 0.00 | 0.61 | 0.00 | 85 | 1018.8 |
| 20260508231540 | 10 | 342 | 0.0 | 6.4 | 0.00 | 0.61 | 0.00 | 85 | 1019.1 |
| 20260508231158 | 10 | 35 | 1.6 | 6.4 | 0.00 | 0.61 | 0.00 | 85 | 1018.7 |
| 20260508230644 | 10 | 18 | 3.2 | 4.8 | 0.00 | 0.61 | 0.00 | 84 | 1018.7 |
| 20260508230008 | 10 | 20 | 1.6 | 6.4 | 0.00 | 0.61 | 0.00 | 84 | 1019.1 |
| 20260508225628 | 10 | 9 | 3.2 | 6.4 | 0.00 | 0.61 | 0.00 | 84 | 1018.7 |
| 20260508225114 | 10 | 5 | 3.2 | 8.0 | 0.00 | 0.61 | 0.00 | 84 | 1018.8 |
| 20260508224650 | 10 | 14 | 1.6 | 8.0 | 0.00 | 0.61 | 0.00 | 84 | 1019.2 |
| 20260508224611 | 10 | 38 | 3.2 | 8.0 | 0.00 | 0.61 | 0.00 | 84 | 1018.9 |
| 20260508223120 | 10 | 360 | 3.2 | 8.0 | 0.00 | 0.61 | 0.00 | 84 | 1019.1 |
| 20260508223041 | 10 | 19 | 3.2 | 8.0 | 0.00 | 0.61 | 0.00 | 84 | 1018.8 |
| 20260508222531 | 10 | 10 | 3.2 | 12.9 | 0.00 | 0.61 | 0.00 | 84 | 1018.8 |
| 20260508222025 | 10 | 25 | 4.8 | 12.9 | 0.00 | 0.61 | 0.00 | 84 | 1018.7 |
| 20260508221700 | 10 | 5 | 4.8 | 12.9 | 0.00 | 0.61 | 0.00 | 85 | 1019.0 |
| 20260508221519 | 10 | 327 | 4.8 | 8.0 | 0.00 | 0.61 | 0.00 | 85 | 1018.7 |
| 20260508221010 | 10 | 355 | 4.8 | 11.3 | 0.00 | 0.61 | 0.00 | 85 | 1018.8 |
| 20260508220511 | 10 | 355 | 3.2 | 11.3 | 0.00 | 0.61 | 0.00 | 85 | 1018.7 |
| 20260508220044 | 10 | 72 | 1.6 | 9.7 | 0.00 | 0.61 | 0.00 | 86 | 1018.9 |
| 20260508220007 | 10 | 303 | 3.2 | 9.7 | 0.00 | 0.61 | 0.00 | 86 | 1018.6 |
| 20260508215444 | 10 | 30 | 3.2 | 9.7 | 0.00 | 0.61 | 0.61 | 86 | 1018.6 |
| 20260508214929 | 10 | 355 | 1.6 | 8.0 | 0.00 | 0.61 | 0.61 | 86 | 1018.5 |
| 20260508214613 | 10 | 5 | 0.0 | 8.0 | 0.00 | 0.61 | 0.61 | 86 | 1018.8 |
| 20260508214421 | 10 | 9 | 1.6 | 8.0 | 0.00 | 0.61 | 0.61 | 86 | 1018.5 |
| 20260508213859 | 10 | 321 | 3.2 | 9.7 | 0.00 | 0.61 | 0.61 | 86 | 1018.5 |
| 20260508213346 | 10 | 336 | 3.2 | 9.7 | 0.00 | 0.61 | 0.61 | 86 | 1018.5 |
| 20260508213016 | 10 | 329 | 1.6 | 6.4 | 0.00 | 0.61 | 0.61 | 86 | 1018.9 |
| 20260508212830 | 10 | 333 | 1.6 | 6.4 | 0.00 | 0.61 | 0.61 | 86 | 1018.5 |
| 20260508211534 | 10 | 303 | 0.0 | 6.4 | 0.00 | 0.61 | 0.61 | 86 | 1018.8 |
| 20260508211253 | 10 | 350 | 3.2 | 6.4 | 0.00 | 0.61 | 0.61 | 85 | 1018.6 |
| 20260508210744 | 11 | 350 | 3.2 | 8.0 | 0.00 | 0.61 | 0.61 | 85 | 1018.5 |
| 20260508210008 | 10 | 345 | 1.6 | 9.7 | 0.00 | 0.61 | 0.61 | 85 | 1018.8 |
| 20260508205723 | 11 | 350 | 3.2 | 9.7 | 0.00 | 0.61 | 0.61 | 85 | 1018.5 |
| 20260508205214 | 11 | 5 | 3.2 | 9.7 | 0.00 | 0.61 | 0.61 | 85 | 1018.6 |
| 20260508204706 | 11 | 355 | 1.6 | 6.4 | 0.00 | 0.61 | 0.61 | 85 | 1018.5 |
| 20260508204537 | 11 | 355 | 1.6 | 6.4 | 0.00 | 0.61 | 0.61 | 85 | 1018.8 |
| 20260508204153 | 11 | 355 | 1.6 | 6.4 | 0.00 | 0.61 | 0.61 | 85 | 1018.3 |
| 20260508203641 | 11 | 355 | 1.6 | 6.4 | 0.00 | 0.61 | 0.61 | 85 | 1018.2 |
| 20260508203134 | 11 | 5 | 3.2 | 8.0 | 0.00 | 0.61 | 0.61 | 84 | 1018.2 |
| 20260508203014 | 11 | 5 | 1.6 | 8.0 | 0.00 | 0.61 | 0.61 | 84 | 1018.6 |
| 20260508202618 | 11 | 333 | 3.2 | 6.4 | 0.00 | 0.61 | 0.61 | 84 | 1018.2 |
| 20260508202114 | 11 | 324 | 1.6 | 6.4 | 0.00 | 0.61 | 0.61 | 84 | 1018.2 |
| 20260508201611 | 11 | 0 | 1.6 | 4.8 | 0.00 | 0.61 | 0.61 | 84 | 1018.2 |
| 20260508201552 | 11 | 360 | 0.0 | 4.8 | 0.00 | 0.61 | 0.61 | 84 | 1018.6 |
| 20260508201108 | 11 | 5 | 1.6 | 3.2 | 0.00 | 0.61 | 0.61 | 83 | 1018.2 |
| 20260508200605 | 11 | 5 | 1.6 | 4.8 | 0.00 | 0.61 | 0.61 | 83 | 1018.1 |
| 20260508200104 | 11 | 5 | 3.2 | 8.0 | 0.00 | 0.61 | 0.61 | 82 | 1018.1 |
| 20260508200042 | 11 | 5 | 1.6 | 8.0 | 0.00 | 0.61 | 0.61 | 82 | 1018.5 |
| 20260508195552 | 11 | 328 | 3.2 | 8.0 | 0.00 | 0.61 | 0.61 | 82 | 1018.0 |
| 20260508195046 | 11 | 347 | 1.6 | 3.2 | 0.00 | 0.61 | 0.61 | 82 | 1018.0 |
| 20260508194533 | 12 | 348 | 1.6 | 8.0 | 0.00 | 0.61 | 0.61 | 82 | 1017.9 |
| 20260508194509 | 11 | 348 | 0.0 | 8.0 | 0.00 | 0.61 | 0.61 | 82 | 1018.4 |
| 20260508194031 | 12 | 344 | 3.2 | 8.0 | 0.00 | 0.61 | 0.61 | 82 | 1017.8 |
| 20260508193526 | 12 | 10 | 3.2 | 8.0 | 0.00 | 0.61 | 0.61 | 82 | 1017.8 |
| 20260508193110 | 11 | 5 | 3.2 | 8.0 | 0.00 | 0.61 | 0.61 | 82 | 1018.2 |
| 20260508192504 | 12 | 341 | 1.6 | 4.8 | 0.00 | 0.61 | 0.61 | 82 | 1017.8 |
| 20260508191950 | 12 | 341 | 1.6 | 4.8 | 0.00 | 0.61 | 0.61 | 82 | 1017.8 |
| 20260508191522 | 12 | 328 | 1.6 | 4.8 | 0.00 | 0.61 | 0.61 | 82 | 1018.3 |
| 20260508191442 | 12 | 328 | 1.6 | 4.8 | 0.00 | 0.61 | 0.61 | 82 | 1017.8 |
| 20260508190435 | 12 | 327 | 1.6 | 3.2 | 0.00 | 0.61 | 0.61 | 82 | 1017.8 |
| 20260508190115 | 12 | 311 | 0.0 | 4.8 | 0.00 | 0.61 | 0.61 | 82 | 1018.1 |
| 20260508185925 | 12 | 311 | 1.6 | 4.8 | 0.00 | 0.61 | 0.61 | 82 | 1017.7 |
| 20260508185413 | 12 | 332 | 1.6 | 3.2 | 0.00 | 0.61 | 0.61 | 82 | 1017.7 |
| 20260508184905 | 12 | 330 | 1.6 | 6.4 | 0.00 | 0.64 | 0.61 | 81 | 1017.7 |
| 20260508184537 | 12 | 332 | 1.6 | 8.0 | 0.00 | 0.86 | 0.61 | 81 | 1017.9 |
| 20260508184355 | 12 | 333 | 3.2 | 8.0 | 0.00 | 0.69 | 0.61 | 81 | 1017.6 |
| 20260508183848 | 12 | 327 | 3.2 | 8.0 | 0.00 | 0.71 | 0.61 | 81 | 1017.6 |
| 20260508183116 | 12 | 316 | 1.6 | 9.7 | 0.00 | 0.86 | 0.61 | 81 | 1017.7 |
| 20260508182830 | 12 | 317 | 1.6 | 9.7 | 0.00 | 0.86 | 0.61 | 81 | 1017.4 |
| 20260508182318 | 12 | 311 | 1.6 | 4.8 | 0.00 | 0.86 | 0.61 | 81 | 1017.3 |
| 20260508181800 | 12 | 322 | 3.2 | 9.7 | 0.00 | 0.86 | 0.61 | 81 | 1017.2 |
| 20260508181534 | 12 | 325 | 1.6 | 9.7 | 0.00 | 0.86 | 0.61 | 81 | 1017.6 |
| 20260508181250 | 12 | 342 | 1.6 | 9.7 | 0.00 | 0.86 | 0.61 | 81 | 1017.2 |
| 20260508180735 | 12 | 355 | 1.6 | 4.8 | 0.00 | 0.86 | 0.61 | 81 | 1017.2 |
| 20260508180214 | 12 | 0 | 1.6 | 6.4 | 0.00 | 0.86 | 0.61 | 80 | 1017.2 |
| 20260508180058 | 12 | 360 | 0.0 | 6.4 | 0.00 | 0.86 | 0.61 | 80 | 1017.5 |
| 20260508175702 | 12 | 5 | 3.2 | 6.4 | 0.00 | 0.86 | 0.61 | 80 | 1017.1 |
| 20260508175148 | 12 | 326 | 3.2 | 6.4 | 0.00 | 0.86 | 0.61 | 79 | 1017.2 |
| 20260508174626 | 12 | 319 | 3.2 | 6.4 | 0.00 | 0.86 | 0.61 | 79 | 1017.1 |
| 20260508174614 | 12 | 319 | 1.6 | 6.4 | 0.00 | 0.86 | 0.61 | 79 | 1017.4 |
| 20260508174123 | 12 | 334 | 3.2 | 8.0 | 0.00 | 0.86 | 0.61 | 79 | 1017.0 |
| 20260508173611 | 12 | 333 | 1.6 | 8.0 | 0.00 | 0.86 | 0.61 | 79 | 1017.0 |
| 20260508173057 | 12 | 323 | 1.6 | 8.0 | 0.00 | 0.86 | 0.61 | 79 | 1017.0 |
| 20260508173032 | 12 | 323 | 1.6 | 8.0 | 0.00 | 0.86 | 0.61 | 79 | 1017.3 |
| 20260508172546 | 13 | 298 | 1.6 | 6.4 | 0.00 | 0.86 | 0.61 | 79 | 1016.9 |
| 20260508172033 | 13 | 298 | 1.6 | 6.4 | 0.00 | 0.86 | 0.61 | 80 | 1016.9 |
| 20260508171559 | 12 | 317 | 0.0 | 4.8 | 0.00 | 0.86 | 0.61 | 80 | 1017.2 |
| 20260508171521 | 13 | 317 | 1.6 | 4.8 | 0.00 | 0.86 | 0.61 | 80 | 1016.9 |
| 20260508171009 | 13 | 317 | 1.6 | 6.4 | 0.00 | 0.86 | 0.61 | 79 | 1016.9 |
| 20260508170456 | 13 | 316 | 1.6 | 6.4 | 0.00 | 0.86 | 0.61 | 79 | 1016.9 |
| 20260508170025 | 12 | 317 | 0.0 | 8.0 | 0.00 | 0.86 | 0.61 | 79 | 1017.1 |
| 20260508165939 | 13 | 317 | 3.2 | 8.0 | 0.00 | 0.86 | 0.61 | 78 | 1016.8 |
| 20260508165429 | 13 | 318 | 1.6 | 8.0 | 0.00 | 0.86 | 0.61 | 78 | 1016.8 |
| 20260508164930 | 13 | 305 | 1.6 | 6.4 | 0.00 | 0.86 | 0.61 | 78 | 1016.8 |
| 20260508164559 | 12 | 280 | 0.0 | 6.4 | 0.00 | 0.86 | 0.61 | 78 | 1017.1 |
| 20260508164415 | 13 | 280 | 3.2 | 9.7 | 0.00 | 0.86 | 0.61 | 77 | 1016.8 |
| 20260508163904 | 13 | 296 | 4.8 | 9.7 | 0.00 | 0.86 | 0.61 | 77 | 1016.9 |
| 20260508163355 | 13 | 330 | 3.2 | 8.0 | 0.00 | 0.86 | 0.61 | 77 | 1016.8 |
| 20260508163126 | 13 | 331 | 1.6 | 8.0 | 0.00 | 0.86 | 0.61 | 78 | 1017.1 |
| 20260508162845 | 13 | 32 | 1.6 | 4.8 | 0.00 | 0.86 | 0.61 | 78 | 1016.8 |
| 20260508162333 | 13 | 340 | 1.6 | 4.8 | 0.00 | 0.86 | 0.61 | 79 | 1016.8 |
| 20260508161819 | 13 | 340 | 1.6 | 6.4 | 0.00 | 0.86 | 0.61 | 79 | 1016.8 |
| 20260508161538 | 13 | 340 | 1.6 | 6.4 | 0.00 | 0.86 | 0.61 | 79 | 1017.1 |
| 20260508161254 | 13 | 341 | 1.6 | 8.0 | 0.00 | 0.86 | 0.61 | 79 | 1016.7 |
| 20260508160215 | 13 | 351 | 1.6 | 4.8 | 0.00 | 0.86 | 0.61 | 79 | 1016.8 |
| 20260508160048 | 13 | 314 | 0.0 | 6.4 | 0.00 | 0.86 | 0.61 | 79 | 1017.0 |
| 20260508155655 | 13 | 322 | 1.6 | 6.4 | 0.00 | 0.86 | 0.61 | 79 | 1016.8 |
| 20260508154600 | 13 | 299 | 0.0 | 6.4 | 0.00 | 0.86 | 0.61 | 79 | 1017.0 |
| 20260508154110 | 13 | 310 | 1.6 | 6.4 | 0.00 | 0.86 | 0.61 | 79 | 1016.8 |
| 20260508153559 | 13 | 11 | 1.6 | 4.8 | 0.00 | 0.86 | 0.61 | 80 | 1016.8 |
| 20260508153045 | 13 | 13 | 1.6 | 4.8 | 0.00 | 0.86 | 0.61 | 80 | 1016.8 |
| 20260508153029 | 13 | 13 | 0.0 | 4.8 | 0.00 | 0.86 | 0.61 | 80 | 1017.1 |
| 20260508152017 | 13 | 11 | 1.6 | 6.4 | 0.00 | 0.86 | 0.61 | 80 | 1016.8 |
| 20260508151534 | 12 | 13 | 1.6 | 6.4 | 0.00 | 0.86 | 0.61 | 80 | 1017.0 |
| 20260508151457 | 13 | 333 | 3.2 | 6.4 | 0.00 | 0.86 | 0.61 | 80 | 1016.8 |
| 20260508150944 | 13 | 317 | 3.2 | 6.4 | 0.00 | 0.86 | 0.61 | 80 | 1016.8 |
| 20260508150429 | 13 | 333 | 3.2 | 6.4 | 0.00 | 0.86 | 0.61 | 80 | 1016.8 |
| 20260508150159 | 12 | 342 | 3.2 | 6.4 | 0.00 | 0.86 | 0.61 | 80 | 1017.1 |
| 20260508145917 | 13 | 313 | 3.2 | 6.4 | 0.00 | 0.86 | 0.61 | 79 | 1016.9 |
| 20260508144850 | 13 | 346 | 1.6 | 4.8 | 0.00 | 0.86 | 0.61 | 80 | 1017.0 |
| 20260508144525 | 12 | 329 | 0.0 | 4.8 | 0.00 | 0.86 | 0.61 | 80 | 1017.3 |
| 20260508144328 | 12 | 329 | 3.2 | 8.0 | 0.00 | 0.86 | 0.61 | 80 | 1017.0 |
| 20260508143305 | 12 | 336 | 3.2 | 11.3 | 0.00 | 0.86 | 0.61 | 81 | 1017.0 |
| 20260508143035 | 12 | 318 | 1.6 | 11.3 | 0.00 | 0.86 | 0.61 | 82 | 1017.2 |
| 20260508142750 | 12 | 344 | 1.6 | 8.0 | 0.00 | 0.86 | 0.61 | 82 | 1016.8 |
| 20260508142234 | 12 | 317 | 3.2 | 8.0 | 0.00 | 0.86 | 0.61 | 82 | 1016.9 |
| 20260508141715 | 12 | 316 | 3.2 | 11.3 | 0.00 | 0.86 | 0.61 | 82 | 1016.9 |
| 20260508141600 | 12 | 334 | 1.6 | 9.7 | 0.00 | 0.86 | 0.61 | 82 | 1017.2 |
| 20260508140135 | 12 | 297 | 4.8 | 8.0 | 0.00 | 0.86 | 0.61 | 82 | 1016.8 |
| 20260508140016 | 12 | 360 | 4.8 | 8.0 | 0.00 | 0.86 | 0.61 | 82 | 1017.0 |
| 20260508135621 | 12 | 317 | 4.8 | 12.9 | 0.00 | 0.86 | 0.61 | 82 | 1016.8 |
| 20260508135105 | 12 | 296 | 4.8 | 14.5 | 0.00 | 0.86 | 0.61 | 82 | 1016.8 |
| 20260508134552 | 12 | 309 | 6.4 | 16.1 | 0.00 | 0.86 | 0.61 | 82 | 1016.8 |
| 20260508134524 | 12 | 311 | 3.2 | 14.5 | 0.00 | 0.86 | 0.61 | 82 | 1017.0 |
| 20260508133539 | 12 | 302 | 4.8 | 17.7 | 0.00 | 0.86 | 0.61 | 82 | 1016.9 |
| 20260508133100 | 12 | 313 | 4.8 | 9.7 | 0.00 | 0.86 | 0.61 | 83 | 1017.1 |
| 20260508132506 | 12 | 321 | 3.2 | 11.3 | 0.00 | 0.86 | 0.61 | 84 | 1016.9 |
| 20260508131956 | 12 | 315 | 3.2 | 11.3 | 0.00 | 0.86 | 0.61 | 84 | 1016.9 |
| 20260508131521 | 12 | 313 | 3.2 | 12.9 | 0.00 | 0.86 | 0.61 | 84 | 1017.1 |
| 20260508131443 | 12 | 350 | 3.2 | 12.9 | 0.03 | 0.86 | 0.61 | 84 | 1016.9 |
| 20260508130932 | 12 | 318 | 4.8 | 12.9 | 0.03 | 0.86 | 0.61 | 84 | 1016.9 |
| 20260508130412 | 12 | 301 | 3.2 | 12.9 | 0.03 | 0.86 | 0.61 | 84 | 1016.9 |
| 20260508130145 | 12 | 5 | 3.2 | 12.9 | 0.03 | 0.86 | 0.61 | 84 | 1017.0 |
| 20260508125902 | 12 | 302 | 3.2 | 11.3 | 0.03 | 0.86 | 0.61 | 85 | 1016.9 |
| 20260508124834 | 12 | 9 | 3.2 | 14.5 | 0.03 | 0.86 | 0.61 | 84 | 1017.0 |
| 20260508124504 | 12 | 301 | 3.2 | 8.0 | 0.03 | 0.86 | 0.61 | 84 | 1017.2 |
| 20260508124327 | 12 | 313 | 3.2 | 9.7 | 0.03 | 0.86 | 0.61 | 84 | 1017.0 |
| 20260508123825 | 12 | 311 | 4.8 | 9.7 | 0.03 | 0.86 | 0.61 | 85 | 1017.0 |
| 20260508123105 | 12 | 281 | 3.2 | 12.9 | 0.03 | 0.86 | 0.61 | 85 | 1017.3 |
| 20260508122321 | 12 | 17 | 4.8 | 12.9 | 0.03 | 0.86 | 0.61 | 85 | 1017.1 |
| 20260508121819 | 12 | 333 | 4.8 | 12.9 | 0.03 | 0.86 | 0.61 | 85 | 1016.9 |
| 20260508121538 | 12 | 304 | 4.8 | 12.9 | 0.03 | 0.86 | 0.61 | 85 | 1017.1 |
| 20260508121319 | 12 | 345 | 3.2 | 8.0 | 0.00 | 0.84 | 0.58 | 85 | 1016.9 |
| 20260508120821 | 12 | 307 | 3.2 | 12.9 | 0.00 | 0.84 | 0.58 | 85 | 1016.9 |
| 20260508120318 | 12 | 311 | 3.2 | 12.9 | 0.00 | 0.84 | 0.58 | 85 | 1016.9 |
| 20260508120129 | 12 | 302 | 4.8 | 12.9 | 0.00 | 0.84 | 0.58 | 85 | 1017.0 |
| 20260508115815 | 12 | 314 | 4.8 | 9.7 | 0.00 | 0.84 | 0.58 | 85 | 1016.9 |
| 20260508115310 | 12 | 302 | 4.8 | 12.9 | 0.00 | 0.84 | 0.58 | 85 | 1016.9 |
| 20260508114758 | 12 | 310 | 4.8 | 12.9 | 0.00 | 0.84 | 0.58 | 86 | 1017.0 |
| 20260508114639 | 12 | 271 | 3.2 | 12.9 | 0.00 | 0.84 | 0.58 | 86 | 1017.1 |
| 20260508114257 | 12 | 313 | 4.8 | 12.9 | 0.00 | 0.84 | 0.58 | 86 | 1016.9 |
| 20260508113756 | 12 | 302 | 4.8 | 14.5 | 0.00 | 0.84 | 0.58 | 85 | 1016.9 |
| 20260508113249 | 12 | 302 | 4.8 | 11.3 | 0.00 | 0.84 | 0.58 | 85 | 1016.9 |
| 20260508113022 | 12 | 360 | 3.2 | 9.7 | 0.00 | 0.84 | 0.58 | 85 | 1017.0 |
| 20260508112232 | 12 | 5 | 4.8 | 12.9 | 0.00 | 0.84 | 0.58 | 86 | 1016.9 |
| 20260508111729 | 12 | 313 | 4.8 | 12.9 | 0.00 | 0.84 | 0.58 | 86 | 1016.8 |
| 20260508111602 | 12 | 336 | 4.8 | 12.9 | 0.00 | 0.84 | 0.58 | 86 | 1017.0 |
| 20260508111213 | 12 | 323 | 4.8 | 12.9 | 0.00 | 0.84 | 0.58 | 87 | 1016.8 |
| 20260508110706 | 12 | 306 | 3.2 | 12.9 | 0.00 | 0.84 | 0.58 | 88 | 1016.8 |
| 20260508110157 | 11 | 319 | 3.2 | 9.7 | 0.00 | 0.84 | 0.58 | 88 | 1016.8 |
| 20260508110031 | 11 | 318 | 3.2 | 9.7 | 0.00 | 0.84 | 0.58 | 88 | 1017.0 |
| 20260508105644 | 11 | 324 | 3.2 | 9.7 | 0.00 | 0.84 | 0.58 | 88 | 1016.8 |
| 20260508105136 | 11 | 291 | 4.8 | 8.0 | 0.00 | 0.84 | 0.58 | 88 | 1016.8 |
| 20260508104631 | 11 | 321 | 4.8 | 9.7 | 0.00 | 0.84 | 0.58 | 88 | 1016.8 |
| 20260508104607 | 11 | 321 | 4.8 | 9.7 | 0.00 | 0.84 | 0.58 | 88 | 1016.9 |
| 20260508104122 | 11 | 319 | 4.8 | 8.0 | 0.00 | 0.84 | 0.58 | 89 | 1016.8 |
| 20260508103044 | 11 | 304 | 1.6 | 9.7 | 0.00 | 0.84 | 0.58 | 88 | 1017.0 |
| 20260508102544 | 11 | 334 | 3.2 | 8.0 | 0.00 | 0.84 | 0.58 | 88 | 1016.8 |
| 20260508102032 | 11 | 319 | 3.2 | 11.3 | 0.00 | 0.84 | 0.58 | 87 | 1016.8 |
| 20260508101558 | 11 | 331 | 3.2 | 11.3 | 0.00 | 0.84 | 0.58 | 86 | 1016.9 |
| 20260508101011 | 12 | 306 | 3.2 | 6.4 | 0.00 | 0.84 | 0.58 | 87 | 1016.9 |
| 20260508100455 | 12 | 252 | 1.6 | 6.4 | 0.00 | 0.84 | 0.58 | 88 | 1016.8 |
| 20260508100022 | 12 | 248 | 3.2 | 8.0 | 0.00 | 0.84 | 0.58 | 89 | 1016.9 |
| 20260508095942 | 12 | 248 | 3.2 | 8.0 | 0.00 | 0.84 | 0.58 | 89 | 1016.8 |
| 20260508095432 | 12 | 311 | 1.6 | 8.0 | 0.00 | 0.84 | 0.58 | 89 | 1016.8 |
| 20260508094920 | 11 | 313 | 1.6 | 8.0 | 0.00 | 0.84 | 0.58 | 89 | 1016.8 |
| 20260508094652 | 11 | 313 | 1.6 | 8.0 | 0.00 | 0.84 | 0.58 | 89 | 1016.9 |
| 20260508093902 | 11 | 325 | 4.8 | 12.9 | 0.00 | 0.84 | 0.58 | 89 | 1016.8 |
| 20260508093401 | 11 | 342 | 3.2 | 8.0 | 0.00 | 0.84 | 0.58 | 89 | 1016.9 |
| 20260508093037 | 11 | 315 | 4.8 | 8.0 | 0.00 | 0.84 | 0.58 | 90 | 1016.9 |
| 20260508092849 | 11 | 340 | 3.2 | 8.0 | 0.00 | 0.84 | 0.58 | 90 | 1016.8 |
| 20260508092342 | 11 | 341 | 4.8 | 9.7 | 0.00 | 0.84 | 0.58 | 90 | 1016.8 |
| 20260508091600 | 11 | 317 | 3.2 | 9.7 | 0.00 | 0.84 | 0.58 | 90 | 1016.9 |
| 20260508091319 | 11 | 328 | 3.2 | 9.7 | 0.00 | 0.84 | 0.58 | 90 | 1016.8 |
| 20260508090308 | 11 | 305 | 3.2 | 9.7 | 0.00 | 0.84 | 0.58 | 91 | 1016.7 |
| 20260508090039 | 11 | 304 | 1.6 | 9.7 | 0.00 | 0.84 | 0.58 | 91 | 1016.8 |
| 20260508085243 | 11 | 300 | 3.2 | 8.0 | 0.00 | 0.84 | 0.58 | 92 | 1016.8 |
| 20260508084731 | 11 | 355 | 3.2 | 8.0 | 0.00 | 0.84 | 0.58 | 92 | 1016.8 |
| 20260508084501 | 11 | 311 | 3.2 | 6.4 | 0.00 | 0.84 | 0.58 | 92 | 1016.8 |
| 20260508084220 | 11 | 302 | 3.2 | 9.7 | 0.00 | 0.84 | 0.58 | 92 | 1016.6 |
| 20260508083706 | 11 | 311 | 3.2 | 14.5 | 0.00 | 0.84 | 0.58 | 92 | 1016.6 |
| 20260508083027 | 11 | 306 | 3.2 | 8.0 | 0.00 | 0.84 | 0.58 | 93 | 1016.6 |
| 20260508082640 | 11 | 320 | 4.8 | 8.0 | 0.00 | 0.84 | 0.58 | 93 | 1016.5 |
| 20260508082125 | 11 | 355 | 3.2 | 8.0 | 0.00 | 0.84 | 0.58 | 93 | 1016.6 |
| 20260508081610 | 11 | 317 | 3.2 | 9.7 | 0.00 | 0.84 | 0.58 | 94 | 1016.5 |
| 20260508081546 | 10 | 317 | 3.2 | 8.0 | 0.00 | 0.84 | 0.58 | 94 | 1016.5 |
| 20260508081056 | 11 | 327 | 3.2 | 9.7 | 0.00 | 0.84 | 0.58 | 95 | 1016.5 |
| 20260508080027 | 11 | 355 | 4.8 | 12.9 | 0.00 | 0.84 | 0.58 | 96 | 1016.4 |
| 20260508080001 | 10 | 355 | 4.8 | 12.9 | 0.00 | 0.84 | 0.58 | 96 | 1016.4 |
| 20260508075513 | 11 | 313 | 3.2 | 8.0 | 0.00 | 0.84 | 0.58 | 96 | 1016.3 |
| 20260508075002 | 11 | 314 | 3.2 | 8.0 | 0.00 | 0.84 | 0.58 | 97 | 1016.3 |
| 20260508074628 | 10 | 313 | 0.0 | 8.0 | 0.00 | 0.84 | 0.58 | 96 | 1016.3 |
| 20260508073930 | 10 | 287 | 1.6 | 6.4 | 0.00 | 0.84 | 0.58 | 97 | 1016.3 |
| 20260508073414 | 10 | 261 | 1.6 | 6.4 | 0.00 | 0.84 | 0.58 | 97 | 1016.3 |
| 20260508073042 | 10 | 255 | 0.0 | 6.4 | 0.00 | 0.84 | 0.58 | 97 | 1016.3 |
| 20260508072859 | 10 | 259 | 3.2 | 8.0 | 0.00 | 0.84 | 0.58 | 97 | 1016.3 |
| 20260508072343 | 10 | 355 | 1.6 | 8.0 | 0.00 | 0.84 | 0.58 | 97 | 1016.2 |
| 20260508071832 | 10 | 350 | 1.6 | 4.8 | 0.00 | 0.84 | 0.58 | 97 | 1016.1 |
| 20260508071317 | 10 | 350 | 1.6 | 4.8 | 0.00 | 0.84 | 0.58 | 97 | 1016.2 |
| 20260508070804 | 10 | 332 | 1.6 | 9.7 | 0.00 | 0.84 | 0.58 | 97 | 1016.2 |
| 20260508070247 | 10 | 305 | 1.6 | 9.7 | 0.00 | 0.84 | 0.58 | 97 | 1016.1 |
| 20260508070017 | 9 | 304 | 0.0 | 8.0 | 0.00 | 0.84 | 0.58 | 97 | 1016.2 |
| 20260508065734 | 10 | 307 | 3.2 | 9.7 | 0.00 | 0.84 | 0.58 | 97 | 1016.1 |
| 20260508065220 | 10 | 322 | 4.8 | 12.9 | 0.00 | 0.84 | 0.58 | 97 | 1016.1 |
| 20260508064705 | 10 | 317 | 3.2 | 12.9 | 0.00 | 0.84 | 0.58 | 97 | 1016.0 |
| 20260508064541 | 9 | 309 | 3.2 | 12.9 | 0.00 | 0.84 | 0.58 | 97 | 1015.9 |
| 20260508064153 | 10 | 309 | 3.2 | 8.0 | 0.00 | 0.84 | 0.58 | 97 | 1015.9 |
| 20260508063656 | 10 | 340 | 3.2 | 8.0 | 0.00 | 0.84 | 0.58 | 97 | 1015.8 |
| 20260508063130 | 10 | 301 | 3.2 | 9.7 | 0.00 | 0.84 | 0.58 | 97 | 1015.8 |
| 20260508063006 | 10 | 307 | 3.2 | 9.7 | 0.00 | 0.84 | 0.58 | 97 | 1015.7 |
| 20260508062614 | 10 | 313 | 3.2 | 11.3 | 0.03 | 0.84 | 0.58 | 97 | 1015.7 |
| 20260508061606 | 10 | 316 | 4.8 | 12.9 | 0.05 | 0.84 | 0.58 | 97 | 1015.6 |
| 20260508061539 | 10 | 310 | 4.8 | 12.9 | 0.05 | 0.84 | 0.58 | 97 | 1015.6 |
| 20260508061050 | 10 | 312 | 4.8 | 12.9 | 0.05 | 0.84 | 0.58 | 97 | 1015.5 |
| 20260508060537 | 10 | 316 | 3.2 | 8.0 | 0.05 | 0.84 | 0.58 | 97 | 1015.5 |
| 20260508060059 | 9 | 328 | 3.2 | 8.0 | 0.05 | 0.84 | 0.58 | 97 | 1015.4 |
| 20260508060022 | 10 | 330 | 1.6 | 8.0 | 0.05 | 0.84 | 0.58 | 97 | 1015.5 |
| 20260508055507 | 10 | 302 | 1.6 | 11.3 | 0.05 | 0.84 | 0.58 | 97 | 1015.4 |
| 20260508054953 | 10 | 312 | 3.2 | 11.3 | 0.05 | 0.84 | 0.58 | 97 | 1015.4 |
| 20260508054521 | 9 | 311 | 3.2 | 8.0 | 0.05 | 0.84 | 0.58 | 97 | 1015.3 |
| 20260508054444 | 9 | 302 | 3.2 | 8.0 | 0.05 | 0.84 | 0.58 | 97 | 1015.4 |
| 20260508053048 | 9 | 310 | 1.6 | 6.4 | 0.10 | 0.84 | 0.58 | 97 | 1015.2 |
| 20260508052903 | 9 | 311 | 1.6 | 6.4 | 0.10 | 0.81 | 0.58 | 97 | 1015.2 |
| 20260508051840 | 9 | 5 | 3.2 | 6.4 | 0.15 | 0.79 | 0.53 | 97 | 1015.1 |
| 20260508051507 | 9 | 340 | 3.2 | 6.4 | 0.15 | 0.79 | 0.53 | 97 | 1015.0 |
| 20260508051326 | 9 | 335 | 3.2 | 6.4 | 0.15 | 0.79 | 0.53 | 97 | 1015.1 |
| 20260508050812 | 9 | 340 | 1.6 | 6.4 | 0.18 | 0.79 | 0.53 | 97 | 1015.0 |
| 20260508050134 | 9 | 51 | 0.0 | 6.4 | 0.18 | 0.79 | 0.53 | 97 | 1015.0 |
| 20260508045756 | 9 | 51 | 1.6 | 6.4 | 0.18 | 0.79 | 0.53 | 97 | 1015.1 |
| 20260508045247 | 9 | 51 | 0.0 | 6.4 | 0.18 | 0.79 | 0.53 | 97 | 1015.1 |
| 20260508044737 | 9 | 51 | 1.6 | 6.4 | 0.18 | 0.79 | 0.53 | 97 | 1015.3 |
| 20260508044515 | 9 | 51 | 0.0 | 6.4 | 0.18 | 0.79 | 0.53 | 97 | 1015.2 |
| 20260508044233 | 9 | 51 | 1.6 | 6.4 | 0.15 | 0.79 | 0.51 | 97 | 1015.2 |
| 20260508043732 | 9 | 51 | 1.6 | 6.4 | 0.15 | 0.79 | 0.51 | 97 | 1015.2 |
| 20260508043233 | 9 | 5 | 0.0 | 3.2 | 0.13 | 0.74 | 0.51 | 97 | 1015.2 |
| 20260508043002 | 9 | 5 | 0.0 | 4.8 | 0.13 | 0.71 | 0.48 | 97 | 1015.2 |
| 20260508042213 | 9 | 340 | 1.6 | 6.4 | 0.05 | 0.69 | 0.43 | 97 | 1015.2 |
| 20260508041706 | 9 | 319 | 1.6 | 6.4 | 0.03 | 0.64 | 0.41 | 97 | 1015.3 |
| 20260508041643 | 9 | 319 | 0.0 | 6.4 | 0.05 | 0.66 | 0.41 | 97 | 1015.3 |
| 20260508040654 | 9 | 250 | 1.6 | 11.3 | 0.00 | 0.61 | 0.36 | 97 | 1015.3 |
| 20260508040121 | 9 | 250 | 0.0 | 9.7 | 0.00 | 0.61 | 0.36 | 97 | 1015.2 |
| 20260508035640 | 9 | 263 | 1.6 | 11.3 | 0.00 | 0.61 | 0.36 | 97 | 1015.0 |
| 20260508035138 | 9 | 308 | 3.2 | 11.3 | 0.00 | 0.61 | 0.36 | 97 | 1015.0 |
| 20260508034634 | 9 | 311 | 1.6 | 8.0 | 0.00 | 0.61 | 0.36 | 97 | 1014.9 |
| 20260508034506 | 9 | 307 | 1.6 | 8.0 | 0.00 | 0.61 | 0.36 | 97 | 1014.8 |
| 20260508033620 | 9 | 334 | 3.2 | 12.9 | 0.00 | 0.61 | 0.36 | 97 | 1014.7 |
| 20260508033111 | 10 | 286 | 3.2 | 12.9 | 0.00 | 0.61 | 0.36 | 97 | 1014.7 |
| 20260508033045 | 9 | 286 | 1.6 | 12.9 | 0.00 | 0.61 | 0.36 | 97 | 1014.6 |
| 20260508032056 | 10 | 319 | 3.2 | 9.7 | 0.00 | 0.61 | 0.36 | 97 | 1014.6 |
| 20260508031533 | 9 | 351 | 3.2 | 8.0 | 0.00 | 0.61 | 0.36 | 97 | 1014.6 |
| 20260508031052 | 10 | 302 | 3.2 | 16.1 | 0.00 | 0.61 | 0.36 | 97 | 1014.7 |
| 20260508030546 | 10 | 318 | 4.8 | 16.1 | 0.00 | 0.61 | 0.36 | 97 | 1014.6 |
| 20260508030038 | 10 | 313 | 4.8 | 17.7 | 0.00 | 0.61 | 0.36 | 97 | 1014.5 |
| 20260508030012 | 10 | 313 | 3.2 | 17.7 | 0.00 | 0.61 | 0.36 | 97 | 1014.5 |
| 20260508025525 | 10 | 302 | 6.4 | 17.7 | 0.00 | 0.61 | 0.36 | 97 | 1014.6 |
| 20260508025019 | 10 | 265 | 6.4 | 17.7 | 0.00 | 0.61 | 0.36 | 97 | 1014.5 |
| 20260508024547 | 10 | 308 | 4.8 | 17.7 | 0.00 | 0.61 | 0.36 | 97 | 1014.4 |
| 20260508024507 | 10 | 330 | 6.4 | 17.7 | 0.00 | 0.61 | 0.36 | 97 | 1014.5 |
| 20260508023953 | 10 | 309 | 4.8 | 17.7 | 0.00 | 0.61 | 0.36 | 97 | 1014.4 |
| 20260508023440 | 10 | 304 | 4.8 | 17.7 | 0.00 | 0.61 | 0.36 | 97 | 1014.3 |
| 20260508023006 | 10 | 298 | 6.4 | 17.7 | 0.00 | 0.61 | 0.36 | 97 | 1014.2 |
| 20260508022926 | 10 | 336 | 3.2 | 17.7 | 0.00 | 0.61 | 0.36 | 97 | 1014.2 |
| 20260508022415 | 10 | 302 | 3.2 | 16.1 | 0.00 | 0.61 | 0.36 | 97 | 1014.2 |
| 20260508021857 | 10 | 309 | 3.2 | 16.1 | 0.00 | 0.61 | 0.36 | 97 | 1014.2 |
| 20260508021521 | 10 | 316 | 1.6 | 14.5 | 0.00 | 0.61 | 0.36 | 97 | 1014.0 |
| 20260508021344 | 10 | 317 | 4.8 | 14.5 | 0.00 | 0.61 | 0.36 | 96 | 1014.1 |
| 20260508020832 | 10 | 284 | 3.2 | 14.5 | 0.00 | 0.61 | 0.36 | 97 | 1014.1 |
| 20260508020057 | 10 | 328 | 1.6 | 12.9 | 0.03 | 0.61 | 0.36 | 97 | 1013.9 |
| 20260508015811 | 10 | 319 | 3.2 | 14.5 | 0.03 | 0.61 | 0.36 | 97 | 1014.1 |
| 20260508015300 | 10 | 11 | 3.2 | 14.5 | 0.03 | 0.61 | 0.36 | 97 | 1014.0 |
| 20260508014746 | 10 | 355 | 1.6 | 6.4 | 0.03 | 0.61 | 0.36 | 97 | 1014.0 |
| 20260508014518 | 10 | 296 | 0.0 | 6.4 | 0.03 | 0.61 | 0.36 | 96 | 1013.8 |
| 20260508013721 | 10 | 337 | 1.6 | 6.4 | 0.03 | 0.61 | 0.36 | 96 | 1013.9 |
| 20260508013212 | 10 | 283 | 1.6 | 6.4 | 0.03 | 0.61 | 0.36 | 96 | 1013.9 |
| 20260508013053 | 10 | 282 | 0.0 | 6.4 | 0.03 | 0.61 | 0.36 | 97 | 1013.8 |
| 20260508012146 | 10 | 327 | 1.6 | 6.4 | 0.03 | 0.61 | 0.36 | 97 | 1014.0 |
| 20260508011633 | 10 | 342 | 1.6 | 11.3 | 0.05 | 0.61 | 0.36 | 97 | 1014.0 |
| 20260508011504 | 10 | 342 | 0.0 | 9.7 | 0.05 | 0.61 | 0.36 | 97 | 1013.8 |
| 20260508011121 | 10 | 299 | 3.2 | 11.3 | 0.05 | 0.61 | 0.36 | 96 | 1014.0 |